Location: Hilton Head Island
(32.2163°N, 80.7526°W)
Time: 12:10:34
(UTC-05:00)

Vanguard 2 - Pass Details

Date: 25 February 2026
Orbit: 553 x 2896 km, 32.9° (Epoch: 6 March)

Event Time Altitude Azimuth Distance (km) Brightness Sun altitude
Exits shadow 02:47:55 14° 87° (E) 2,794 10.7 -51.7°
Drops below altitude 10° 02:48:37 10° 84° (E) 3,001 10.9 -51.6°
Sets 02:50:53 0° 79° (E) 3,722 11.6 -51.2°
